Tracking 22458 objects as of 2-Mar-2021
HD Live streaming from Space Station
objects crossing your sky now

CZ-4C DEB

Track CZ-4C DEB now!
10-day predictions


NORAD ID: 44211
Int'l Code: 2019-024E
Perigee: 493.6 km
Apogee: 522.8 km
Inclination: 97.5 °
Period: 94.6 minutes
Semi major axis: 6879 km
RCS: Unknown
Launch date: April 29, 2019
Source: People's Republic of China (PRC)
Launch site: Taiyaun Space Center, China (TSC)

Note: This is SATELLITE DEBRIS
aabbcc
Your satellite tracking list
Your tracking list is empty




NASA's NSSDC Master Catalog

Two Line Element Set (TLE):
1 44211U 19024E   21060.49505016  .00002284  00000-0  10381-3 0  9999
2 44211  97.4604  72.0467 0021273  93.4061 266.9609 15.21583632101936
Source of the keplerian elements: AFSPC